Regional Weather Roundup
Issued by NWS Bismarck, ND

Home | Current Version | Previous Version | Text Only | Print | Product List | Glossary On
Versions: 1 2 3 4 5 6 7 8 9 10 11 12 13 14 15 16 17 18 19 20 21 22 23 24 25 26 27 28 29 30 31 32 33 34 35 36 37 38 39 40 41 42 43 44 45 46 47 48 49 50
000
ASUS43 KBIS 010420
RWRBIS

NWR BROADCAST TEXT
NATIONAL WEATHER SERVICE BISMARCK ND
1100 PM CDT THU JUL 31 2014

NOTE: "FAIR" INDICATES FEW OR NO CLOUDS BELOW 12,000 FEET WITH NO
SIGNIFICANT WEATHER AND/OR OBSTRUCTIONS TO VISIBILITY.


CITY           SKY/WX    TMP DP  RH WIND       PRES   REMARKS
WILLISTON      CLEAR     72  59  63 E6        30.03R
MINOT          CLEAR     63  56  78 CALM      30.04R
MINOT AFB      CLEAR     63  62  97 CALM      30.04R
BISMARCK       PTCLDY    69  56  62 CALM      30.04R
DICKINSON      CLEAR     66  57  72 SE9       30.04R
GARRISON         N/A     66  57  72 CALM      30.05R
HETTINGER ARPT CLEAR     67  54  63 E7        30.07R
JAMESTOWN      CLEAR     64  61  90 NE3       30.04R
CARRINGTON     FAIR      64  63  94 CALM      30.05S
CROSBY           N/A     63  63 100 CALM      30.06R
HARVEY         FAIR      63  59  88 SE3       30.05R
HAZEN          FAIR      59  55  88 NE3       30.05R
LINTON         FAIR      66  59  77 SE7       30.05R
MANDAN         FAIR      68  54  60 SE5       30.06R
RUGBY          FAIR      63  61  94 E5        30.04S
STANLEY        FAIR      66  61  82 E5        30.07S
TIOGA          FAIR      57  57 100 SE7       30.09S
WATFORD CITY   FAIR      66  57  72 E9        30.03R
$$

CITY           SKY/WX    TMP DP  RH WIND       PRES   REMARKS
GRAND FORKS    CLEAR     65  63  93 NW5       29.99R
GRAND FORKS AF CLEAR     65  65  99 NW2       30.01R
DEVILS LAKE    PTCLDY    66  59  77 CALM      30.03R
FARGO          CLEAR     69  62  78 CALM      30.00R
CANDO          FAIR      64  63  94 N5        30.05R
CAVALIER       FAIR      66  59  77 NW3       30.03R
GRAFTON        FAIR      66  63  88 N3        30.01R
GWINNER          N/A     66  63  88 W6        30.04S
LANGDON        FAIR      64  59  82 NE5       30.06S
ROLLA          FAIR      59  59 100 NW6       30.08S
WALHALLA         N/A     63  63 100 CALM        N/A
$$

CITY           SKY/WX    TMP DP  RH WIND       PRES   REMARKS
ABERDEEN       CLEAR     59  56  89 S3        30.04S
MOBRIDGE       CLEAR     68  57  68 SE8       30.02R
BUFFALO          N/A     68  47  46 S7        30.02R
RAPID CITY     MOCLDY    66  52  60 E5        30.13F
GLASGOW        MOCLDY    78  47  33 NW6       30.00R
SIDNEY         PTCLDY    73  55  53 NE6       30.03R
WOLF POINT     CLOUDY    76  54  46 E5        29.99R
GLENDIVE       CLOUDY    81  41  24 E3        30.02R
MILES CITY     PTCLDY    85  41  21 S15G22    30.01R
BAKER          PTCLDY    70  46  42 S9        30.05R
$$

CITY           SKY/WX    TMP DP  RH WIND       PRES   REMARKS
BILLINGS       PTCLDY    80  40  23 N7        30.08R
GREAT FALLS    PTCLDY    69  44  40 CALM      30.12R
REGINA         PTCLDY    70  61  73 E7        30.05S
ESTEVAN        PTCLDY    64  61  88 E7        30.06S
$$




USA.gov is the U.S. government's official web portal to all federal, state and local government web resources and services.